| time (UTC) | temp F | wind direction | speed MPH | gust MPH | rain 1hr in | rain 24hr in | rain mn in | humidity % | barometer mb |
| 20260904163706 | 90 | 205 | 0.0 | 0.0 | 0.00 | 0.00 | 0.00 | 75 | 1014.8 |
| 20260904163201 | 91 | 256 | 0.0 | 0.0 | 0.00 | 0.00 | 0.00 | 74 | 1014.7 |
| 20260904162700 | 91 | 259 | 1.0 | 1.0 | 0.00 | 0.00 | 0.00 | 76 | 1014.9 |
| 20260904162155 | 93 | 203 | 0.0 | 0.0 | 0.00 | 0.00 | 0.00 | 75 | 1015.2 |
| 20260904161651 | 90 | 158 | 0.0 | 0.0 | 0.00 | 0.00 | 0.00 | 77 | 1014.9 |
| 20260904161146 | 91 | 212 | 0.0 | 0.0 | 0.00 | 0.00 | 0.00 | 77 | 1014.9 |
| 20260904160642 | 90 | 183 | 0.0 | 0.0 | 0.00 | 0.00 | 0.00 | 78 | 1015.0 |
| 20260904160137 | 89 | 207 | 0.0 | 0.0 | 0.00 | 0.00 | 0.00 | 78 | 1015.2 |
| 20260904155632 | 90 | 220 | 0.0 | 0.0 | 0.00 | 0.00 | 0.00 | 79 | 1015.0 |
| 20260904155126 | 91 | 228 | 0.0 | 0.0 | 0.00 | 0.00 | 0.00 | 78 | 1015.0 |
| 20260904154624 | 91 | 214 | 0.0 | 0.0 | 0.00 | 0.00 | 0.00 | 79 | 1015.0 |
| 20260904154119 | 89 | 209 | 0.0 | 0.0 | 0.00 | 0.00 | 0.00 | 83 | 1015.3 |
| 20260904153614 | 88 | 260 | 0.0 | 0.0 | 0.00 | 0.00 | 0.00 | 83 | 1015.1 |
| 20260904153110 | 88 | 187 | 0.0 | 0.0 | 0.00 | 0.00 | 0.00 | 81 | 1014.9 |
| 20260904152606 | 87 | 226 | 0.0 | 0.0 | 0.00 | 0.00 | 0.00 | 84 | 1015.1 |
| 20260904152101 | 88 | 233 | 0.0 | 1.0 | 0.00 | 0.00 | 0.00 | 83 | 1015.0 |
| 20260904151556 | 88 | 166 | 0.0 | 0.0 | 0.00 | 0.00 | 0.00 | 82 | 1014.9 |
| 20260904151055 | 89 | 263 | 3.0 | 3.0 | 0.00 | 0.00 | 0.00 | 83 | 1014.7 |
| 20260904150550 | 90 | 195 | 0.0 | 0.0 | 0.00 | 0.00 | 0.00 | 81 | 1014.9 |
| 20260904150045 | 89 | 159 | 0.0 | 0.0 | 0.00 | 0.00 | 0.00 | 84 | 1014.9 |
| 20260904145544 | 89 | 118 | 0.0 | 0.0 | 0.00 | 0.00 | 0.00 | 84 | 1014.6 |
| 20260904145039 | 89 | 143 | 0.0 | 0.0 | 0.00 | 0.00 | 0.00 | 83 | 1015.0 |
| 20260904144535 | 88 | 123 | 0.0 | 0.0 | 0.00 | 0.00 | 0.00 | 84 | 1014.9 |
| 20260904144031 | 87 | 193 | 0.0 | 0.0 | 0.00 | 0.00 | 0.00 | 87 | 1014.9 |
| 20260904143526 | 86 | 251 | 0.0 | 0.0 | 0.00 | 0.00 | 0.00 | 89 | 1014.6 |
| 20260904143023 | 84 | 210 | 0.0 | 0.0 | 0.00 | 0.00 | 0.00 | 94 | 1014.7 |
| 20260904142519 | 84 | 163 | 0.0 | 0.0 | 0.00 | 0.00 | 0.00 | 98 | 1014.9 |
| 20260904142019 | 83 | 184 | 0.0 | 0.0 | 0.00 | 0.00 | 0.00 | 99 | 1014.5 |
| 20260904141515 | 82 | 157 | 0.0 | 0.0 | 0.00 | 0.00 | 0.00 | 99 | 1014.4 |
| 20260904141010 | 81 | 176 | 0.0 | 0.0 | 0.00 | 0.00 | 0.00 | 99 | 1014.8 |
| 20260904140505 | 81 | 220 | 0.0 | 0.0 | 0.00 | 0.00 | 0.00 | 99 | 1014.7 |
| 20260904140004 | 81 | 182 | 0.0 | 0.0 | 0.00 | 0.00 | 0.00 | 99 | 1014.5 |
| 20260904135458 | 81 | 156 | 0.0 | 0.0 | 0.00 | 0.00 | 0.00 | 99 | 1014.6 |
| 20260904134955 | 80 | 157 | 0.0 | 0.0 | 0.00 | 0.00 | 0.00 | 99 | 1014.3 |
| 20260904134454 | 80 | 67 | 0.0 | 0.0 | 0.00 | 0.00 | 0.00 | 99 | 1014.7 |
| 20260904133949 | 80 | 183 | 0.0 | 0.0 | 0.00 | 0.00 | 0.00 | 99 | 1014.3 |
| 20260904133444 | 79 | 81 | 0.0 | 0.0 | 0.00 | 0.00 | 0.00 | 99 | 1014.4 |
| 20260904132940 | 79 | 195 | 0.0 | 0.0 | 0.00 | 0.00 | 0.00 | 99 | 1014.5 |
| 20260904132435 | 79 | 163 | 0.0 | 0.0 | 0.00 | 0.00 | 0.00 | 99 | 1014.3 |
| 20260904131934 | 79 | 190 | 0.0 | 0.0 | 0.00 | 0.00 | 0.00 | 99 | 1014.6 |
| 20260904131429 | 79 | 146 | 0.0 | 0.0 | 0.00 | 0.00 | 0.00 | 99 | 1014.7 |
| 20260904130925 | 78 | 161 | 0.0 | 0.0 | 0.00 | 0.00 | 0.00 | 99 | 1014.7 |
| 20260904130424 | 78 | 155 | 0.0 | 0.0 | 0.00 | 0.00 | 0.00 | 99 | 1014.7 |
| 20260904125919 | 78 | 152 | 0.0 | 0.0 | 0.00 | 0.00 | 0.00 | 99 | 1014.5 |
| 20260904125416 | 79 | 203 | 0.0 | 0.0 | 0.00 | 0.00 | 0.00 | 99 | 1014.4 |
| 20260904124915 | 78 | 162 | 0.0 | 0.0 | 0.00 | 0.00 | 0.00 | 99 | 1014.3 |
| 20260904124411 | 78 | 142 | 0.0 | 0.0 | 0.00 | 0.00 | 0.00 | 99 | 1014.3 |
| 20260904123907 | 77 | 167 | 0.0 | 0.0 | 0.00 | 0.00 | 0.00 | 99 | 1014.3 |
| 20260904123407 | 77 | 156 | 0.0 | 0.0 | 0.00 | 0.00 | 0.00 | 99 | 1014.3 |
| 20260904122903 | 77 | 159 | 0.0 | 0.0 | 0.00 | 0.00 | 0.00 | 99 | 1014.3 |
| 20260904122402 | 77 | 168 | 0.0 | 0.0 | 0.00 | 0.00 | 0.00 | 99 | 1014.1 |
| 20260904121856 | 77 | 158 | 0.0 | 0.0 | 0.00 | 0.00 | 0.00 | 99 | 1014.2 |
| 20260904121353 | 77 | 169 | 0.0 | 0.0 | 0.00 | 0.00 | 0.00 | 99 | 1014.1 |
| 20260904120849 | 76 | 152 | 0.0 | 0.0 | 0.00 | 0.00 | 0.00 | 99 | 1013.9 |
| 20260904120345 | 76 | 157 | 0.0 | 0.0 | 0.00 | 0.00 | 0.00 | 99 | 1014.0 |
| 20260904115839 | 76 | 156 | 0.0 | 0.0 | 0.00 | 0.00 | 0.00 | 99 | 1014.0 |
| 20260904115335 | 76 | 151 | 0.0 | 0.0 | 0.00 | 0.00 | 0.00 | 99 | 1013.8 |
| 20260904114829 | 76 | 162 | 0.0 | 0.0 | 0.00 | 0.00 | 0.00 | 99 | 1014.0 |
| 20260904114324 | 75 | 165 | 0.0 | 0.0 | 0.00 | 0.00 | 0.00 | 99 | 1013.8 |
| 20260904113819 | 75 | 169 | 0.0 | 0.0 | 0.00 | 0.00 | 0.00 | 99 | 1013.9 |
| 20260904113319 | 75 | 172 | 0.0 | 0.0 | 0.00 | 0.00 | 0.00 | 99 | 1013.7 |
| 20260904112813 | 75 | 172 | 0.0 | 0.0 | 0.00 | 0.00 | 0.00 | 99 | 1013.5 |
| 20260904112309 | 75 | 172 | 0.0 | 0.0 | 0.00 | 0.00 | 0.00 | 99 | 1013.6 |
| 20260904111804 | 75 | 176 | 0.0 | 0.0 | 0.00 | 0.00 | 0.00 | 99 | 1013.4 |
| 20260904111300 | 75 | 176 | 0.0 | 0.0 | 0.00 | 0.00 | 0.00 | 99 | 1013.4 |
| 20260904110755 | 75 | 172 | 0.0 | 0.0 | 0.00 | 0.00 | 0.00 | 99 | 1013.6 |
| 20260904110254 | 75 | 172 | 0.0 | 0.0 | 0.00 | 0.00 | 0.00 | 99 | 1013.0 |
| 20260904105750 | 75 | 172 | 0.0 | 0.0 | 0.00 | 0.00 | 0.00 | 99 | 1013.4 |
| 20260904105244 | 75 | 176 | 0.0 | 0.0 | 0.00 | 0.00 | 0.00 | 99 | 1013.6 |
| 20260904104739 | 75 | 176 | 0.0 | 0.0 | 0.00 | 0.00 | 0.00 | 99 | 1013.4 |
| 20260904104235 | 75 | 173 | 0.0 | 0.0 | 0.00 | 0.00 | 0.00 | 99 | 1013.3 |
| 20260904103732 | 75 | 172 | 0.0 | 0.0 | 0.00 | 0.00 | 0.00 | 99 | 1013.2 |
| 20260904103226 | 75 | 172 | 0.0 | 0.0 | 0.00 | 0.00 | 0.00 | 99 | 1013.4 |
| 20260904102722 | 75 | 176 | 0.0 | 0.0 | 0.00 | 0.00 | 0.00 | 99 | 1013.2 |
| 20260904102217 | 75 | 169 | 0.0 | 0.0 | 0.00 | 0.00 | 0.00 | 99 | 1013.3 |
| 20260904101714 | 75 | 169 | 0.0 | 0.0 | 0.00 | 0.00 | 0.00 | 99 | 1013.2 |
| 20260904101209 | 75 | 169 | 0.0 | 0.0 | 0.00 | 0.00 | 0.00 | 99 | 1013.1 |
| 20260904100705 | 75 | 169 | 0.0 | 0.0 | 0.00 | 0.00 | 0.00 | 99 | 1013.0 |
| 20260904100201 | 75 | 169 | 0.0 | 0.0 | 0.00 | 0.00 | 0.00 | 99 | 1013.1 |
| 20260904095700 | 75 | 169 | 0.0 | 0.0 | 0.00 | 0.00 | 0.00 | 99 | 1013.0 |
| 20260904095155 | 75 | 169 | 0.0 | 0.0 | 0.00 | 0.00 | 0.00 | 99 | 1012.9 |
| 20260904094650 | 75 | 172 | 0.0 | 0.0 | 0.00 | 0.00 | 0.00 | 99 | 1012.8 |
| 20260904094145 | 75 | 169 | 0.0 | 0.0 | 0.00 | 0.00 | 0.00 | 99 | 1012.8 |
| 20260904093642 | 75 | 169 | 0.0 | 0.0 | 0.00 | 0.00 | 0.00 | 99 | 1012.8 |
| 20260904093141 | 75 | 162 | 0.0 | 0.0 | 0.00 | 0.00 | 0.00 | 99 | 1012.7 |
| 20260904092637 | 75 | 155 | 0.0 | 0.0 | 0.00 | 0.00 | 0.00 | 99 | 1012.9 |
| 20260904092133 | 75 | 147 | 0.0 | 0.0 | 0.00 | 0.00 | 0.00 | 99 | 1012.6 |
| 20260904091629 | 75 | 169 | 0.0 | 0.0 | 0.00 | 0.00 | 0.00 | 99 | 1012.8 |
| 20260904091129 | 75 | 172 | 0.0 | 0.0 | 0.00 | 0.00 | 0.00 | 99 | 1012.7 |
| 20260904090624 | 75 | 176 | 0.0 | 0.0 | 0.00 | 0.00 | 0.00 | 99 | 1012.6 |
| 20260904090120 | 75 | 176 | 0.0 | 0.0 | 0.00 | 0.00 | 0.00 | 99 | 1012.7 |
| 20260904085620 | 75 | 176 | 0.0 | 0.0 | 0.00 | 0.00 | 0.00 | 99 | 1012.7 |
| 20260904085120 | 75 | 169 | 0.0 | 0.0 | 0.00 | 0.00 | 0.00 | 99 | 1012.6 |
| 20260904084615 | 75 | 176 | 0.0 | 0.0 | 0.00 | 0.00 | 0.00 | 99 | 1012.5 |
| 20260904084112 | 75 | 172 | 0.0 | 0.0 | 0.00 | 0.00 | 0.00 | 99 | 1012.4 |
| 20260904083608 | 75 | 170 | 0.0 | 0.0 | 0.00 | 0.00 | 0.00 | 99 | 1012.6 |
| 20260904083103 | 75 | 169 | 0.0 | 0.0 | 0.00 | 0.00 | 0.00 | 99 | 1012.7 |
| 20260904082558 | 75 | 161 | 0.0 | 0.0 | 0.00 | 0.00 | 0.00 | 99 | 1012.4 |
| 20260904082054 | 75 | 176 | 0.0 | 0.0 | 0.00 | 0.00 | 0.00 | 99 | 1012.5 |
| 20260904081549 | 75 | 172 | 0.0 | 0.0 | 0.00 | 0.00 | 0.00 | 99 | 1012.6 |
| 20260904081044 | 75 | 176 | 0.0 | 0.0 | 0.00 | 0.00 | 0.00 | 99 | 1012.6 |
| 20260904080540 | 75 | 169 | 0.0 | 0.0 | 0.00 | 0.00 | 0.00 | 99 | 1012.9 |
| 20260904080036 | 76 | 169 | 0.0 | 0.0 | 0.00 | 0.00 | 0.00 | 99 | 1013.0 |
| 20260904075532 | 76 | 176 | 0.0 | 0.0 | 0.00 | 0.00 | 0.00 | 99 | 1012.9 |
| 20260904075026 | 76 | 172 | 0.0 | 0.0 | 0.00 | 0.00 | 0.00 | 99 | 1012.7 |
| 20260904074520 | 75 | 172 | 0.0 | 0.0 | 0.00 | 0.00 | 0.00 | 99 | 1012.7 |
| 20260904074020 | 75 | 176 | 0.0 | 0.0 | 0.00 | 0.00 | 0.00 | 99 | 1012.5 |
| 20260904073515 | 75 | 176 | 0.0 | 0.0 | 0.00 | 0.00 | 0.00 | 99 | 1012.6 |
| 20260904073012 | 75 | 176 | 0.0 | 0.0 | 0.00 | 0.00 | 0.00 | 99 | 1012.7 |
| 20260904072507 | 75 | 161 | 0.0 | 0.0 | 0.00 | 0.00 | 0.00 | 99 | 1012.5 |
| 20260904072002 | 75 | 171 | 0.0 | 0.0 | 0.00 | 0.00 | 0.00 | 99 | 1012.4 |
| 20260904071457 | 75 | 172 | 0.0 | 0.0 | 0.00 | 0.00 | 0.00 | 99 | 1012.4 |
| 20260904070952 | 75 | 161 | 0.0 | 0.0 | 0.00 | 0.00 | 0.00 | 99 | 1012.4 |
| 20260904070450 | 75 | 169 | 0.0 | 0.0 | 0.00 | 0.00 | 0.00 | 99 | 1012.6 |
| 20260904065945 | 75 | 148 | 0.0 | 0.0 | 0.00 | 0.00 | 0.00 | 99 | 1012.5 |
| 20260904065441 | 75 | 169 | 0.0 | 0.0 | 0.00 | 0.00 | 0.00 | 99 | 1012.6 |
| 20260904064936 | 75 | 169 | 0.0 | 0.0 | 0.00 | 0.00 | 0.00 | 99 | 1012.6 |
| 20260904064433 | 75 | 169 | 0.0 | 0.0 | 0.00 | 0.00 | 0.00 | 99 | 1012.5 |
| 20260904063928 | 75 | 161 | 0.0 | 0.0 | 0.00 | 0.00 | 0.00 | 99 | 1012.6 |
| 20260904063424 | 75 | 162 | 0.0 | 0.0 | 0.00 | 0.00 | 0.00 | 99 | 1012.6 |
| 20260904062919 | 75 | 161 | 0.0 | 0.0 | 0.00 | 0.00 | 0.00 | 99 | 1012.7 |
| 20260904062415 | 75 | 169 | 0.0 | 0.0 | 0.00 | 0.00 | 0.00 | 99 | 1012.7 |
| 20260904061911 | 75 | 165 | 0.0 | 0.0 | 0.00 | 0.00 | 0.00 | 99 | 1012.6 |
| 20260904061407 | 75 | 162 | 0.0 | 0.0 | 0.00 | 0.00 | 0.00 | 99 | 1013.1 |
| 20260904060903 | 75 | 165 | 0.0 | 0.0 | 0.00 | 0.00 | 0.00 | 99 | 1012.7 |
| 20260904060358 | 75 | 162 | 0.0 | 0.0 | 0.00 | 0.00 | 0.00 | 99 | 1013.0 |
| 20260904055853 | 75 | 161 | 0.0 | 0.0 | 0.00 | 0.00 | 0.00 | 99 | 1012.8 |
| 20260904055349 | 75 | 162 | 0.0 | 0.0 | 0.00 | 0.00 | 0.00 | 99 | 1013.0 |
| 20260904054844 | 76 | 169 | 0.0 | 0.0 | 0.00 | 0.00 | 0.00 | 99 | 1013.0 |
| 20260904054340 | 76 | 169 | 0.0 | 0.0 | 0.00 | 0.00 | 0.00 | 99 | 1012.9 |
| 20260904053836 | 76 | 156 | 0.0 | 0.0 | 0.00 | 0.00 | 0.00 | 99 | 1012.9 |
| 20260904053335 | 76 | 169 | 0.0 | 0.0 | 0.00 | 0.00 | 0.00 | 99 | 1012.8 |
| 20260904052831 | 76 | 162 | 0.0 | 0.0 | 0.00 | 0.00 | 0.00 | 99 | 1013.1 |
| 20260904052327 | 76 | 162 | 0.0 | 0.0 | 0.00 | 0.00 | 0.00 | 99 | 1013.2 |
| 20260904051823 | 76 | 169 | 0.0 | 0.0 | 0.00 | 0.00 | 0.00 | 99 | 1013.1 |
| 20260904051319 | 76 | 170 | 0.0 | 0.0 | 0.00 | 0.00 | 0.00 | 99 | 1013.0 |
| 20260904050813 | 76 | 163 | 0.0 | 0.0 | 0.00 | 0.00 | 0.00 | 99 | 1013.3 |
| 20260904050305 | 76 | 172 | 0.0 | 0.0 | 0.00 | 0.00 | 0.00 | 99 | 1013.3 |
| 20260904045804 | 76 | 176 | 0.0 | 0.0 | 0.00 | 0.00 | 0.00 | 99 | 1013.3 |
| 20260904045259 | 76 | 177 | 0.0 | 0.0 | 0.00 | 0.00 | 0.00 | 99 | 1013.3 |
| 20260904044754 | 76 | 172 | 0.0 | 0.0 | 0.00 | 0.00 | 0.00 | 99 | 1013.4 |
| 20260904044251 | 76 | 163 | 0.0 | 0.0 | 0.00 | 0.00 | 0.00 | 99 | 1013.3 |
| 20260904043746 | 76 | 168 | 0.0 | 0.0 | 0.00 | 0.00 | 0.00 | 99 | 1013.3 |
| 20260904043242 | 76 | 165 | 0.0 | 0.0 | 0.00 | 0.00 | 0.00 | 99 | 1013.3 |
| 20260904042737 | 76 | 165 | 0.0 | 0.0 | 0.00 | 0.00 | 0.00 | 99 | 1013.4 |
| 20260904042234 | 76 | 166 | 0.0 | 0.0 | 0.00 | 0.00 | 0.00 | 99 | 1013.5 |
| 20260904041733 | 76 | 166 | 0.0 | 0.0 | 0.00 | 0.00 | 0.00 | 99 | 1013.4 |
| 20260904041230 | 76 | 158 | 0.0 | 0.0 | 0.00 | 0.00 | 0.00 | 99 | 1013.6 |
| 20260904040725 | 76 | 164 | 0.0 | 0.0 | 0.00 | 0.00 | 0.00 | 99 | 1013.6 |
| 20260904040221 | 76 | 171 | 0.0 | 0.0 | 0.00 | 0.00 | 0.00 | 99 | 1013.5 |
| 20260904035717 | 76 | 163 | 0.0 | 0.0 | 0.00 | 2.53 | 2.53 | 99 | 1013.5 |
| 20260904035212 | 76 | 159 | 0.0 | 0.0 | 0.00 | 2.53 | 2.53 | 99 | 1013.5 |
| 20260904034711 | 76 | 172 | 0.0 | 0.0 | 0.00 | 2.53 | 2.53 | 99 | 1013.3 |
| 20260904034207 | 76 | 159 | 0.0 | 0.0 | 0.00 | 2.53 | 2.53 | 99 | 1013.3 |
| 20260904033703 | 76 | 160 | 0.0 | 0.0 | 0.00 | 2.53 | 2.53 | 99 | 1013.5 |
| 20260904033159 | 77 | 145 | 0.0 | 0.0 | 0.00 | 2.53 | 2.53 | 99 | 1013.7 |
| 20260904032655 | 76 | 153 | 0.0 | 0.0 | 0.00 | 2.53 | 2.53 | 99 | 1013.8 |
| 20260904032153 | 77 | 156 | 0.0 | 0.0 | 0.00 | 2.53 | 2.53 | 99 | 1013.6 |
| 20260904031648 | 77 | 152 | 0.0 | 0.0 | 0.00 | 2.53 | 2.53 | 99 | 1013.6 |
| 20260904031144 | 77 | 162 | 0.0 | 0.0 | 0.00 | 2.53 | 2.53 | 99 | 1013.5 |
| 20260904030639 | 77 | 154 | 0.0 | 0.0 | 0.00 | 2.53 | 2.53 | 99 | 1013.6 |
| 20260904030135 | 77 | 157 | 0.0 | 0.0 | 0.00 | 2.53 | 2.53 | 99 | 1013.5 |
| 20260904025630 | 76 | 169 | 0.0 | 0.0 | 0.00 | 2.53 | 2.53 | 99 | 1013.5 |
| 20260904025125 | 76 | 162 | 0.0 | 0.0 | 0.00 | 2.53 | 2.53 | 99 | 1013.5 |
| 20260904024621 | 77 | 170 | 0.0 | 0.0 | 0.00 | 2.53 | 2.53 | 99 | 1013.7 |
| 20260904024116 | 77 | 152 | 0.0 | 0.0 | 0.00 | 2.53 | 2.53 | 99 | 1013.4 |
| 20260904023612 | 76 | 152 | 0.0 | 0.0 | 0.00 | 2.53 | 2.53 | 99 | 1013.3 |
| 20260904023108 | 76 | 167 | 0.0 | 0.0 | 0.00 | 2.53 | 2.53 | 99 | 1013.6 |
| 20260904022608 | 76 | 164 | 0.0 | 0.0 | 0.00 | 2.53 | 2.53 | 99 | 1013.7 |
| 20260904022105 | 76 | 166 | 0.0 | 0.0 | 0.00 | 2.53 | 2.53 | 99 | 1013.3 |
| 20260904021600 | 76 | 160 | 0.0 | 0.0 | 0.00 | 2.53 | 2.53 | 99 | 1013.3 |
| 20260904021055 | 76 | 160 | 0.0 | 0.0 | 0.00 | 2.53 | 2.53 | 99 | 1013.4 |
| 20260904020550 | 76 | 167 | 0.0 | 0.0 | 0.00 | 2.53 | 2.53 | 99 | 1013.0 |
| 20260904020045 | 76 | 157 | 0.0 | 0.0 | 0.00 | 2.53 | 2.53 | 99 | 1013.0 |
| 20260904015539 | 76 | 139 | 0.0 | 0.0 | 0.00 | 2.53 | 2.53 | 99 | 1013.0 |
| 20260904015038 | 76 | 152 | 0.0 | 0.0 | 0.00 | 2.53 | 2.53 | 99 | 1013.1 |
| 20260904014532 | 76 | 152 | 0.0 | 0.0 | 0.00 | 2.53 | 2.53 | 99 | 1012.9 |
| 20260904014028 | 76 | 139 | 0.0 | 0.0 | 0.00 | 2.53 | 2.53 | 99 | 1013.0 |
| 20260904013524 | 76 | 155 | 0.0 | 0.0 | 0.00 | 2.53 | 2.53 | 99 | 1013.0 |
| 20260904013021 | 76 | 153 | 0.0 | 0.0 | 0.00 | 2.53 | 2.53 | 99 | 1012.9 |
| 20260904012520 | 76 | 154 | 0.0 | 0.0 | 0.00 | 2.53 | 2.53 | 99 | 1013.0 |
| 20260904012015 | 76 | 152 | 0.0 | 0.0 | 0.00 | 2.53 | 2.53 | 99 | 1012.8 |
| 20260904011514 | 77 | 147 | 0.0 | 0.0 | 0.00 | 2.53 | 2.53 | 99 | 1012.8 |
| 20260904011010 | 77 | 156 | 0.0 | 0.0 | 0.00 | 2.53 | 2.53 | 99 | 1012.7 |
| 20260904010506 | 76 | 149 | 0.0 | 0.0 | 0.00 | 2.53 | 2.53 | 99 | 1012.9 |
| 20260904010001 | 76 | 140 | 0.0 | 0.0 | 0.00 | 2.53 | 2.53 | 99 | 1012.9 |
| 20260904005456 | 76 | 135 | 0.0 | 0.0 | 0.07 | 2.53 | 2.53 | 99 | 1012.8 |
| 20260904004951 | 75 | 144 | 0.0 | 0.0 | 0.07 | 2.53 | 2.53 | 99 | 1013.0 |
| 20260904004447 | 76 | 150 | 0.0 | 0.0 | 0.00 | 2.52 | 2.52 | 99 | 1012.8 |
| 20260904003947 | 75 | 152 | 0.0 | 0.0 | 0.00 | 2.52 | 2.52 | 99 | 1012.8 |
| 20260904003443 | 75 | 161 | 0.0 | 0.0 | 0.07 | 2.52 | 2.52 | 99 | 1012.8 |
| 20260904002938 | 75 | 159 | 0.0 | 0.0 | 0.07 | 2.52 | 2.52 | 99 | 1012.8 |
| 20260904002435 | 75 | 150 | 0.0 | 0.0 | 0.00 | 2.51 | 2.51 | 99 | 1012.8 |
| 20260904001933 | 75 | 140 | 0.0 | 0.0 | 0.05 | 2.51 | 2.51 | 99 | 1012.8 |
| 20260904001429 | 75 | 132 | 0.0 | 0.0 | 0.05 | 2.51 | 2.51 | 99 | 1012.7 |
| 20260904000924 | 75 | 140 | 0.0 | 0.0 | 0.00 | 2.50 | 2.50 | 99 | 1012.6 |
| 20260904000425 | 75 | 134 | 0.0 | 0.0 | 0.00 | 2.50 | 2.50 | 99 | 1012.8 |
| 20260903235918 | 75 | 151 | 0.0 | 0.0 | 0.07 | 2.50 | 2.50 | 99 | 1012.8 |
| 20260903235415 | 74 | 147 | 0.0 | 0.0 | 0.12 | 2.50 | 2.50 | 99 | 1012.6 |
| 20260903234914 | 74 | 161 | 0.0 | 0.0 | 0.24 | 2.50 | 2.50 | 99 | 1012.6 |
| 20260903234410 | 74 | 165 | 0.0 | 0.0 | 0.40 | 2.49 | 2.49 | 99 | 1012.6 |
| 20260903233906 | 75 | 146 | 0.0 | 0.0 | 1.32 | 2.46 | 2.46 | 99 | 1012.9 |
| 20260903233402 | 75 | 164 | 0.0 | 0.0 | 2.76 | 2.42 | 2.42 | 99 | 1012.7 |
| 20260903232902 | 75 | 95 | 0.0 | 0.0 | 4.70 | 2.29 | 2.29 | 99 | 1012.8 |
| 20260903232357 | 77 | 215 | 0.0 | 0.0 | 5.88 | 1.96 | 1.96 | 99 | 1013.3 |
| 20260903231856 | 77 | 158 | 0.0 | 0.0 | 5.50 | 1.51 | 1.51 | 99 | 1013.4 |
| 20260903231351 | 77 | 173 | 0.0 | 0.0 | 3.24 | 0.95 | 0.95 | 99 | 1013.3 |
| 20260903230847 | 80 | 232 | 0.0 | 0.0 | 0.66 | 0.50 | 0.50 | 98 | 1013.2 |
| 20260903230342 | 81 | 195 | 0.0 | 0.0 | 0.64 | 0.40 | 0.40 | 98 | 1012.8 |
| 20260903225838 | 80 | 269 | 0.0 | 1.0 | 0.73 | 0.39 | 0.39 | 98 | 1012.6 |
| 20260903225334 | 81 | 142 | 0.0 | 0.0 | 0.24 | 0.30 | 0.30 | 97 | 1012.7 |
| 20260903224830 | 81 | 144 | 0.0 | 0.0 | 0.05 | 0.27 | 0.27 | 96 | 1012.4 |
| 20260903224326 | 82 | 167 | 0.0 | 0.0 | 0.07 | 0.26 | 0.26 | 96 | 1012.3 |
| 20260903223821 | 82 | 205 | 0.0 | 0.0 | 0.07 | 0.26 | 0.26 | 95 | 1012.0 |
| 20260903223320 | 82 | 268 | 0.0 | 0.0 | 0.00 | 0.25 | 0.25 | 94 | 1012.1 |
| 20260903222815 | 82 | 290 | 0.0 | 0.0 | 0.00 | 0.25 | 0.25 | 94 | 1012.1 |
| 20260903222314 | 82 | 311 | 0.0 | 0.0 | 0.00 | 0.25 | 0.25 | 93 | 1012.3 |
| 20260903221809 | 82 | 292 | 0.0 | 0.0 | 0.00 | 0.25 | 0.25 | 94 | 1012.5 |
| 20260903221308 | 83 | 341 | 0.0 | 0.0 | 0.00 | 0.25 | 0.25 | 94 | 1012.3 |
| 20260903220806 | 83 | 8 | 0.0 | 0.0 | 0.00 | 0.25 | 0.25 | 94 | 1012.4 |
| 20260903220301 | 83 | 230 | 0.0 | 0.0 | 0.00 | 0.25 | 0.25 | 95 | 1011.8 |
| 20260903215759 | 83 | 211 | 0.0 | 0.0 | 0.00 | 0.25 | 0.25 | 94 | 1011.9 |
| 20260903215256 | 83 | 242 | 0.0 | 0.0 | 0.00 | 0.25 | 0.25 | 94 | 1011.7 |
| 20260903214753 | 83 | 277 | 0.0 | 0.0 | 0.00 | 0.25 | 0.25 | 93 | 1011.9 |
| 20260903214250 | 84 | 159 | 0.0 | 0.0 | 0.00 | 0.25 | 0.25 | 93 | 1011.5 |
| 20260903213744 | 85 | 125 | 0.0 | 0.0 | 0.00 | 0.25 | 0.25 | 91 | 1011.3 |
| 20260903213240 | 85 | 140 | 0.0 | 0.0 | 0.00 | 0.25 | 0.25 | 89 | 1011.5 |
| 20260903212736 | 85 | 130 | 0.0 | 0.0 | 0.00 | 0.25 | 0.25 | 88 | 1011.4 |
| 20260903212232 | 84 | 151 | 0.0 | 0.0 | 0.00 | 0.25 | 0.25 | 90 | 1011.3 |
| 20260903211725 | 84 | 200 | 0.0 | 0.0 | 0.00 | 0.25 | 0.25 | 92 | 1011.1 |
| 20260903211222 | 84 | 179 | 0.0 | 0.0 | 0.00 | 0.25 | 0.25 | 93 | 1010.8 |
| 20260903210718 | 84 | 113 | 0.0 | 0.0 | 0.00 | 0.25 | 0.25 | 92 | 1011.0 |
| 20260903210213 | 83 | 45 | 0.0 | 0.0 | 0.00 | 0.25 | 0.25 | 92 | 1011.2 |
| 20260903205713 | 83 | 167 | 0.0 | 0.0 | 0.00 | 0.25 | 0.25 | 95 | 1011.3 |
| 20260903205212 | 83 | 209 | 0.0 | 0.0 | 0.00 | 0.25 | 0.25 | 97 | 1011.2 |
| 20260903204707 | 83 | 68 | 0.0 | 0.0 | 0.00 | 0.25 | 0.25 | 97 | 1011.4 |
| 20260903204204 | 83 | 151 | 0.0 | 0.0 | 0.00 | 0.25 | 0.25 | 97 | 1011.6 |
| 20260903203659 | 83 | 170 | 0.0 | 0.0 | 0.00 | 0.25 | 0.25 | 97 | 1011.8 |
| 20260903203154 | 83 | 152 | 0.0 | 0.0 | 0.00 | 0.25 | 0.25 | 97 | 1011.7 |
| 20260903202648 | 84 | 89 | 0.0 | 0.0 | 0.00 | 0.25 | 0.25 | 97 | 1011.7 |
| 20260903202145 | 83 | 177 | 0.0 | 0.0 | 0.05 | 0.25 | 0.25 | 97 | 1011.8 |
| 20260903201644 | 84 | 102 | 0.0 | 0.0 | 0.40 | 0.25 | 0.25 | 96 | 1011.9 |
| 20260903201144 | 85 | 185 | 0.0 | 0.0 | 1.25 | 0.24 | 0.24 | 96 | 1011.9 |
| 20260903200638 | 83 | 63 | 0.0 | 0.0 | 1.09 | 0.19 | 0.19 | 93 | 1011.9 |
| 20260903200134 | 84 | 137 | 0.0 | 0.0 | 0.31 | 0.06 | 0.06 | 90 | 1012.0 |
| 20260903195630 | 86 | 128 | 0.0 | 0.0 | 0.00 | 0.01 | 0.01 | 88 | 1011.9 |
| 20260903195125 | 87 | 152 | 0.0 | 0.0 | 0.00 | 0.01 | 0.01 | 88 | 1012.0 |
| 20260903194621 | 87 | 145 | 0.0 | 0.0 | 0.00 | 0.01 | 0.01 | 85 | 1012.0 |
| 20260903194120 | 88 | 326 | 0.0 | 0.0 | 0.00 | 0.01 | 0.01 | 85 | 1012.3 |
| 20260903193616 | 88 | 180 | 0.0 | 0.0 | 0.00 | 0.01 | 0.01 | 85 | 1012.3 |
| 20260903193112 | 88 | 67 | 0.0 | 0.0 | 0.00 | 0.01 | 0.01 | 83 | 1012.1 |
| 20260903192608 | 88 | 165 | 0.0 | 0.0 | 0.00 | 0.01 | 0.01 | 82 | 1012.3 |
| 20260903192103 | 88 | 168 | 0.0 | 0.0 | 0.00 | 0.01 | 0.01 | 83 | 1012.4 |
| 20260903191559 | 88 | 132 | 0.0 | 0.0 | 0.00 | 0.01 | 0.01 | 83 | 1012.4 |
| 20260903191054 | 88 | 188 | 0.0 | 0.0 | 0.00 | 0.01 | 0.01 | 83 | 1012.5 |
| 20260903190554 | 88 | 176 | 0.0 | 0.0 | 0.00 | 0.01 | 0.01 | 82 | 1012.4 |
| 20260903190053 | 88 | 154 | 0.0 | 0.0 | 0.00 | 0.01 | 0.01 | 80 | 1012.1 |
| 20260903185548 | 89 | 156 | 0.0 | 0.0 | 0.00 | 0.01 | 0.01 | 80 | 1012.4 |
| 20260903185044 | 90 | 135 | 0.0 | 0.0 | 0.00 | 0.01 | 0.01 | 78 | 1012.5 |
| 20260903184540 | 91 | 23 | 0.0 | 0.0 | 0.00 | 0.01 | 0.01 | 77 | 1012.3 |
| 20260903184035 | 91 | 176 | 0.0 | 0.0 | 0.00 | 0.01 | 0.01 | 77 | 1012.6 |
| 20260903183534 | 90 | 165 | 0.0 | 0.0 | 0.00 | 0.01 | 0.01 | 80 | 1012.5 |
| 20260903183029 | 89 | 104 | 0.0 | 0.0 | 0.00 | 0.01 | 0.01 | 79 | 1012.6 |
| 20260903182528 | 91 | 79 | 0.0 | 1.0 | 0.00 | 0.01 | 0.01 | 78 | 1012.5 |
| 20260903182025 | 92 | 139 | 0.0 | 0.0 | 0.00 | 0.01 | 0.01 | 70 | 1012.4 |
| 20260903181517 | 93 | 152 | 0.0 | 0.0 | 0.00 | 0.01 | 0.01 | 70 | 1012.5 |
| 20260903181017 | 93 | 107 | 0.0 | 0.0 | 0.00 | 0.01 | 0.01 | 71 | 1012.6 |
| 20260903180513 | 91 | 127 | 0.0 | 0.0 | 0.00 | 0.01 | 0.01 | 73 | 1012.8 |
| 20260903180012 | 90 | 152 | 0.0 | 1.0 | 0.00 | 0.01 | 0.01 | 77 | 1013.0 |
| 20260903175511 | 90 | 350 | 0.0 | 0.0 | 0.00 | 0.01 | 0.01 | 80 | 1013.0 |
| 20260903175011 | 89 | 235 | 0.0 | 0.0 | 0.00 | 0.01 | 0.01 | 80 | 1012.9 |
| 20260903174506 | 89 | 166 | 0.0 | 0.0 | 0.00 | 0.01 | 0.01 | 80 | 1013.0 |
| 20260903174001 | 90 | 133 | 0.0 | 0.0 | 0.00 | 0.01 | 0.01 | 78 | 1013.2 |
| 20260903173455 | 90 | 176 | 0.0 | 0.0 | 0.00 | 0.01 | 0.01 | 79 | 1013.4 |
| 20260903172951 | 91 | 253 | 0.0 | 0.0 | 0.00 | 0.01 | 0.01 | 78 | 1013.3 |
| 20260903172446 | 89 | 20 | 0.0 | 1.0 | 0.00 | 0.01 | 0.01 | 82 | 1013.5 |
| 20260903171941 | 88 | 227 | 0.0 | 0.0 | 0.00 | 0.01 | 0.01 | 83 | 1013.8 |
| 20260903171436 | 88 | 145 | 0.0 | 0.0 | 0.00 | 0.01 | 0.01 | 82 | 1013.7 |
| 20260903170937 | 88 | 174 | 0.0 | 0.0 | 0.00 | 0.01 | 0.01 | 82 | 1013.7 |
| 20260903170431 | 87 | 36 | 0.0 | 0.0 | 0.00 | 0.01 | 0.01 | 83 | 1013.4 |
| 20260903165930 | 88 | 161 | 0.0 | 0.0 | 0.00 | 0.01 | 0.01 | 82 | 1013.4 |
| 20260903165425 | 88 | 148 | 0.0 | 0.0 | 0.00 | 0.01 | 0.01 | 81 | 1013.6 |
| 20260903164924 | 88 | 152 | 0.0 | 0.0 | 0.00 | 0.01 | 0.01 | 83 | 1013.8 |
| 20260903164419 | 88 | 171 | 0.0 | 0.0 | 0.00 | 0.01 | 0.01 | 83 | 1013.9 |